Regional Weather Roundup
Issued by NWS

Home | Current Version | Previous Version | Text Only | Print | Product List | Glossary Off
Versions: 1 2 3 4 5 6 7 8 9 10 11 12 13 14 15 16 17 18 19 20 21 22 23 24 25 26 27 28 29 30 31 32 33 34 35 36 37 38 39 40 41 42 43 44 45 46 47 48 49 50

175
ASUS43 KDMX 271008
RWRIA

WEATHER ROUNDUP FOR IOWA
NATIONAL WEATHER SERVICE DES MOINES IA
500 AM CDT TUE SEP 27 2016

NOTE: "FAIR" INDICATES FEW OR NO CLOUDS BELOW 12,000 FEET WITH NO
SIGNIFICANT WEATHER AND/OR OBSTRUCTIONS TO VISIBILITY.

* - THESE STATIONS ARE NOT NWS STATIONS...THUS NOT UNDER NWS
QUALITY CONTROL.  THEY ALSO DO NOT REPORT WEATHER SUCH
AS PRECIPITATION OR FOG.

IAZ001>003-012>014-020>022-031>034-043>046-271100-
   NORTHWEST IOWA

CITY           SKY/WX    TMP DP  RH WIND       PRES   REMARKS
CARROLL *      CLEAR     46  41  81 W8        30.00S
CHEROKEE *     CLEAR     46  38  72 CALM      30.01S
DENISON *      CLEAR     45  43  93 CALM      30.01R
LE MARS *      CLEAR     46  41  81 CALM      30.03S
ORANGE CITY *  CLEAR     41  37  87 W6        30.01S
SHELDON *      CLEAR     46  37  71 NW8       29.98F
SIOUX CITY     PTCLDY    49  43  80 N3        30.03S
SPENCER        CLEAR     45  38  76 W9        29.98F
STORM LAKE *   CLEAR     45  39  81 W12       30.00F
$$

IAZ055>058-069>071-079>083-090>094-271100-
   SOUTHWEST IOWA

CITY           SKY/WX    TMP DP  RH WIND       PRES   REMARKS
ATLANTIC *     CLEAR     46  45  93 CALM      30.02F
AUDUBON *      CLEAR     45  41  87 CALM      30.03S
CLARINDA *       N/A     46  46 100 MISG      30.05S
COUNCIL BLFS * CLEAR     52  46  82 W5        30.03F
CRESTON *      CLEAR     50  43  76 W7        30.03S
HARLAN  *      PTCLDY    48  45  87 CALM      30.06S
LAMONI         CLEAR     51  45  79 W8        30.01S HAZE
RED OAK *      MOCLDY    46  45  93 CALM      30.04S
SHENANDOAH *   CLEAR     50  46  87 SW3       30.04F
$$

IAZ047>049-059>061-072>074-084-271100-
   CENTRAL IOWA

CITY           SKY/WX    TMP DP  RH WIND       PRES   REMARKS
AMES           CLEAR     51  41  68 W9        29.97S
ANKENY *         N/A    N/A N/A N/A MISG        N/A
BOONE *        CLEAR     50  39  66 W9        29.97S
CHARITON *       N/A     50  45  81 W8        30.00R
DES MOINES     CLEAR     51  44  77 W5        29.99S
GRINNELL*      CLEAR     47  41  79 SW3       29.97S
KNOXVILLE *    CLEAR     48  43  81 W8        29.97F
MARSHALLTOWN   CLEAR     46  40  79 W7        29.94F
NEWTON *       CLEAR     46  43  87 W7        29.96F
PELLA *        CLEAR     52  46  77 W6        29.99S
PERRY *          N/A     46  43  89 W6        30.00R
$$

IAZ004>006-015-016-023>025-035-036-271100-
   NORTH CENTRAL IOWA

CITY           SKY/WX    TMP DP  RH WIND       PRES   REMARKS
ALGONA *       CLEAR     45  39  81 W10       29.96S
CLARION *      CLEAR     43  39  87 W6        29.95F
ESTHERVILLE    CLEAR     46  38  73 W9        29.96S
FORT DODGE *   CLEAR     48  36  61 CALM      29.98S
MASON CITY     CLEAR     44  37  76 W10       29.93S
FOREST CITY *    N/A     41  36  81 W3        29.93R
WEBSTER CITY * CLEAR     45  41  87 W7        29.95S
IOWA FALLS *     N/A     45  40  82 W8        29.95S
$$

IAZ007>011-017>019-026>030-037>042-050>054-066-271100-
   NORTHEAST IOWA

CITY           SKY/WX    TMP DP  RH WIND       PRES   REMARKS
CEDAR RAPIDS   CLEAR     45  42  89 W6        29.92F
CHARLES CITY * CLEAR     45  39  81 W7        29.91S
CLINTON *      CLEAR     46  43  89 W9        29.91S
DECORAH *      CLEAR     46  37  71 VRB6      29.86S
DUBUQUE        CLEAR     42  39  89 SW8       29.88F
MONTICELLO *   CLEAR     48  39  71 W7        29.90S
OELWEIN *      CLEAR     43  39  87 W7        29.91S
WATERLOO       CLEAR     47  39  74 W8        29.91S
$$

IAZ064-065-067-068-078-271100-
   EAST CENTRAL IOWA

CITY           SKY/WX    TMP DP  RH WIND       PRES   REMARKS
DAVENPORT      CLEAR     49  42  77 W8        29.93F
IOWA CITY      CLEAR     47  42  83 W7        29.95S
MT. PLEASANT * CLEAR     50  46  88 SW7       29.96F
MUSCATINE *    CLEAR     52  43  71 W5        29.94F
QUAD CITIES    CLEAR     51  43  74 W6        29.92F
$$

IAZ062-063-075>077-085>089-095>099-271100-
   SOUTHEAST IOWA

CITY           SKY/WX    TMP DP  RH WIND       PRES   REMARKS
BURLINGTON     CLEAR     51  46  83 W5        29.96S
FAIRFIELD *    CLEAR     46  43  87 W7        29.96S
FORT MADISON * CLEAR     52  46  82 SW6       29.97S
KEOKUK *       CLEAR     52  46  82 W6        29.97S
OSKALOOSA *      N/A     47  42  85 W8        29.98S
CENTERVILLE *    N/A     50  45  81 W6        30.01S
OTTUMWA        CLEAR     46  41  82 W7        29.97S
WASHINGTON *     N/A    N/A N/A N/A MISG        N/A
$$

ABBREVIATIONS USED IN REMARKS
   TC - TEMPERATURES IN CELSIUS
  WCI - WIND CHILL INDEX
   HX - HEAT INDEX
  VSB - VISIBILITY
$$





USA.gov is the U.S. government's official web portal to all federal, state and local government web resources and services.